Flag for Canada Weather past 2 weeks in Kingston, Ontario, Canada

Now
52 °F

Scattered clouds.


Feels Like: 51 °F
Forecast: 39 / 54 °F
Wind: 3 mph from North

Location: Kingston

Current Time: May 22, 2015 at 10:18:15 AM

Latest Report: May 22, 2015 at 10:00 AM


Visibility: 15 mi

Pressure: 29.99 "Hg

Humidity: 47%

Dew point: 32 °F

Location of KingstonLocation

Historic Weather in Kingston — Graph

°F

Kingston temperature yesterday

Maximum temperature yesterday: 59 °F (at 3:00 PM)
Minimum temperature yesterday: 46 °F (at 6:00 AM)
Average temperature yesterday: 52 °F

Past Weeks' High & Low Weather Summary

 TemperatureHumidityPressure
High77 °F (May 8, 6:00 PM)100% (May 8, 6:00 AM)30.47 "Hg (May 8, 6:00 AM)
Low36 °F (May 14, 6:00 AM)36% (May 7, 5:00 PM)29.73 "Hg (May 12, 6:00 AM)
Average58 °F73%30.05 "Hg
* Reported May 7 9:00 AM — May 22 9:00 AM, Kingston, Weather by CustomWeather, © 2015

Note: Actual official high and low records may vary slightly from our data, if they occured in-between our weather recording intervals... More about our weather records

Advertising

Kingston weather history for previous 24 hours

 ConditionsComfort  
Time TempWeatherWind HumidityBarometerVisibility
9:00 AM
Fri, May 22
50 °FScattered clouds.6 mph58%29.98 "Hg15 mi
8:00 AM48 °FScattered clouds.8 mph62%29.96 "Hg15 mi
7:00 AM46 °FPassing clouds.10 mph66%29.93 "Hg15 mi
6:00 AM43 °FPassing clouds.5 mph81%29.89 "Hg15 mi
11:00 PM
Thu, May 21
52 °FPartly cloudy.9 mph62%29.84 "Hg15 mi
10:00 PM54 °FPassing clouds.13 mph58%29.85 "Hg15 mi
9:00 PM50 °FPartly sunny.8 mph67%29.84 "Hg15 mi
8:00 PM50 °FBroken clouds.5 mph71%29.83 "Hg15 mi
7:00 PM52 °FBroken clouds.13 mph62%29.83 "Hg15 mi
6:00 PM54 °FScattered clouds.15 mph58%29.83 "Hg15 mi
5:00 PM54 °FScattered clouds.16 mph58%29.84 "Hg15 mi
4:00 PM55 °FPassing clouds.17 mph55%29.85 "Hg15 mi
3:00 PM59 °FPassing clouds.16 mph51%29.87 "Hg15 mi
2:00 PM57 °FPassing clouds.18 mph48%29.88 "Hg15 mi
1:00 PM54 °FPassing clouds.20 mph67%29.90 "Hg15 mi
12:00 PM52 °FPassing clouds.17 mph72%29.91 "Hg15 mi
11:00 AM57 °FPassing clouds.12 mph51%29.92 "Hg15 mi
10:00 AM54 °FPassing clouds.12 mph54%29.93 "Hg15 mi
Weather by CustomWeather, © 2015

See weather overviewHow to use our weather pages